Chattanooga, TN

1:15 PM EDT on June 25, 2017 (GMT -0400)
Lovell

Weather History for KCHA - November, 2012

Change the Weather History Date:

Friday, November 16, 2012

  Actual Average Record
Temperature  
Mean Temperature 47 °F 51 °F  
Max Temperature 61 °F 62 °F 91 °F (2016)
Min Temperature 33 °F 40 °F 14 °F (1940)
Degree Days  
Heating Degree Days 18 14  
Month to date heating degree days 224 184  
Since 1 July heating degree days 393 356  
Moisture  
Dew Point 33 °F    
Average Humidity 62    
Maximum Humidity 100    
Minimum Humidity 24    
Precipitation  
Precipitation 0.00 in 0.18 in 1.84 in (1930)
Month to date precipitation 1.14 2.39  
Year to date precipitation 44.80 44.97  
Snow  
Snow 0.00 in 0.00 in - ()
Month to date snowfall 0.0 0.0  
Since 1 July snowfall 0.0 0.0  
Since 1 September snowfall 0.0 0.0  
Snow Depth 0.00 in    
Sea Level Pressure  
Sea Level Pressure 30.32 in    
Wind  
Wind Speed 3 mph (NNE)    
Max Wind Speed 14 mph    
Max Gust Speed 17 mph    
Visibility 10 miles    
Events      
T = Trace of Precipitation, MM = Missing Value Source: NWS Daily Summary

Daily Weather History Graph

Daily Weather History Graph

Search for Another Location

Airport or City:

Trip Planner

Search our weather history database for the weather conditions in past years. The results will help you decide how hot, cold, wet, or windy it might be!

Date:

Astronomy

Nov. 16, 2012 Rise Set
Actual Time 7:16 AM EST 5:34 PM EST
Civil Twilight 6:49 AM EST 6:01 PM EST
Nautical Twilight 6:19 AM EST 6:31 PM EST
Astronomical Twilight 5:49 AM EST 7:01 PM EST
Moon 10:08 AM EST (11/16) 8:34 PM EST (11/16)
Length of Visible Light 11h 11m
Length of Day
10h 17m
Waxing Crescent, 11% of the Moon is Illuminated
Nov 16
Waxing Crescent
Nov 20
First Quarter
Nov 28
Full
Dec 6
Last Quarter
Dec 13
New

Hourly Weather History & Observations

Time (EST) Temp. Dew Point Humidity Pressure Visibility Wind Dir Wind Speed Gust Speed Precip Events Conditions
12:53 AM 39.0 °F 37.0 °F 93% 30.29 in 10.0 mi Calm Calm - N/A   Mostly Cloudy
1:53 AM 39.0 °F 37.0 °F 93% 30.29 in 10.0 mi Calm Calm - N/A   Scattered Clouds
2:53 AM 37.0 °F 35.1 °F 93% 30.29 in 10.0 mi Calm Calm - N/A   Scattered Clouds
3:53 AM 37.0 °F 34.0 °F 89% 30.29 in 10.0 mi Calm Calm - N/A   Partly Cloudy
4:53 AM 36.0 °F 34.0 °F 93% 30.30 in 10.0 mi Calm Calm - N/A   Partly Cloudy
5:53 AM 34.0 °F 33.1 °F 96% 30.30 in 10.0 mi Calm Calm - N/A   Clear
6:53 AM 34.0 °F 33.1 °F 96% 30.32 in 10.0 mi Calm Calm - N/A   Scattered Clouds
7:37 AM 33.8 °F 32.0 °F 93% 30.32 in 10.0 mi Calm Calm - N/A   Scattered Clouds
7:53 AM 35.1 °F 33.1 °F 92% 30.34 in 10.0 mi Calm Calm - N/A   Scattered Clouds
8:53 AM 37.9 °F 36.0 °F 93% 30.35 in 10.0 mi Calm Calm - N/A   Scattered Clouds
9:53 AM 46.9 °F 39.0 °F 74% 30.36 in 10.0 mi Calm Calm - N/A   Scattered Clouds
10:53 AM 52.0 °F 35.1 °F 53% 30.37 in 10.0 mi North 6.9 mph - N/A   Scattered Clouds
11:53 AM 54.0 °F 34.0 °F 47% 30.35 in 10.0 mi North 10.4 mph - N/A   Scattered Clouds
12:53 PM 57.0 °F 32.0 °F 39% 30.32 in 10.0 mi NNE 8.1 mph - N/A   Scattered Clouds
1:53 PM 59.0 °F 32.0 °F 36% 30.30 in 10.0 mi NNW 9.2 mph - N/A   Scattered Clouds
2:53 PM 61.0 °F 30.0 °F 31% 30.29 in 10.0 mi NNE 11.5 mph - N/A   Scattered Clouds
3:53 PM 60.1 °F 24.1 °F 25% 30.28 in 10.0 mi NE 9.2 mph - N/A   Scattered Clouds
4:53 PM 59.0 °F 23.0 °F 25% 30.29 in 10.0 mi NNE 10.4 mph - N/A   Partly Cloudy
5:53 PM 55.9 °F 24.1 °F 29% 30.30 in 10.0 mi NNE 3.5 mph - N/A   Partly Cloudy
6:53 PM 48.0 °F 30.0 °F 50% 30.32 in 10.0 mi Calm Calm - N/A   Clear
7:53 PM 45.0 °F 32.0 °F 60% 30.33 in 10.0 mi Calm Calm - N/A   Clear
8:53 PM 42.1 °F 33.1 °F 70% 30.33 in 10.0 mi Calm Calm - N/A   Clear
9:53 PM 42.1 °F 34.0 °F 73% 30.35 in 10.0 mi Calm Calm - N/A   Clear
10:53 PM 39.0 °F 35.1 °F 86% 30.35 in 10.0 mi Calm Calm - N/A   Clear
11:53 PM 39.9 °F 34.0 °F 79% 30.35 in 10.0 mi Calm Calm - N/A   Clear